Regional Weather Roundup
Issued by NWS Sioux Falls, SD

Home | Current Version | Previous Version | Graphics & Text | Print | Product List | Glossary Off
Versions: 1 2 3 4 5 6 7 8 9 10 11 12 13 14 15 16 17 18 19 20 21 22 23 24 25 26 27 28 29 30 31 32 33 34 35 36 37 38 39 40 41 42 43 44 45 46 47 48 49 50

000
ASUS43 KFSD 300402
RWRFSD

WEATHER ROUNDUP FOR SE SOUTH DAKOTA/SW MINNESOTA/NW IOWA
NATIONAL WEATHER SERVICE SIOUX FALLS SD
1100 PM CDT FRI JUL 29 2016

NOTE: "FAIR" INDICATES FEW OR NO CLOUDS BELOW 12,000 FEET WITH NO
SIGNIFICANT WEATHER AND OR OBSTRUCTIONS TO VISIBILITY.


SDZ038>040-050-052>070-300500-
SOUTHEAST SOUTH DAKOTA

CITY           SKY/WX    TMP DP  RH WIND       PRES   REMARKS
BROOKINGS      CLEAR     65  57  75 SE7       30.06S
CHAMBERLAIN    CLEAR     65  60  82 SE6       30.03R
HURON          PTCLDY    69  55  60 SE10      30.02R
MADISON        FAIR      61  59  94 E3        30.07S
MITCHELL       CLEAR     66  56  70 SE7       30.04R
SIOUX FALLS    PTCLDY    66  55  67 E5        30.05S
WINNER         FAIR      67  60  78 SE9       30.02S
YANKTON        CLOUDY    66  55  68 E5        30.04R
$$

MNZ071-072-080-081-089-090-097-098-300500-
SOUTHWEST MINNESOTA

CITY           SKY/WX    TMP DP  RH WIND       PRES   REMARKS
FAIRMONT       MOCLDY    61  55  82 CALM      30.04S
JACKSON        CLEAR     59  55  88 CALM      30.07S
LUVERNE        CLEAR     61  54  77 CALM      30.07S
MARSHALL       CLEAR     63  59  87 CALM      30.06S
MONTEVIDEO     CLEAR     66  57  72 S5        30.07S
REDWOOD FALLS  CLEAR     66  56  70 CALM      30.05R
TRACY          CLEAR     64  58  83 CALM      30.07S
WINDOM         CLEAR     59  55  88 CALM      30.07S
WORTHINGTON    CLEAR     61  57  87 CALM      30.08S
$$

IAZ001>003-012>014-020>022-031-032-NEZ013-014-SDZ071-300500-
NORTHWEST IOWA

CITY           SKY/WX    TMP DP  RH WIND       PRES   REMARKS
CHEROKEE       CLEAR     63  62  99 CALM      30.05S
DENISON        PTCLDY    63  61  94 CALM      30.03S
ESTHERVILLE    CLEAR     59  57  93 N5        30.06R
LE MARS        CLEAR     64  61  88 CALM      30.06R
SHELDON        CLEAR     61  59  94 NE6       30.04F
SIOUX CITY     PTCLDY    68  62  81 SE3       30.04R
SPENCER        CLEAR     58  55  90 CALM      30.06R
STORM LAKE     CLEAR     64  61  88 CALM      30.06S
$$

ABBREVIATIONS USED IN REMARKS
   TC - TEMPERATURE IN CELSIUS
  WCI - WIND CHILL INDEX
   HX - HEAT INDEX
  VSB - VISIBILITY




USA.gov is the U.S. government's official web portal to all federal, state and local government web resources and services.